When you browse on this site, cookies collect data to enhance your experience and personalize the content and advertising you see.
Visit our Privacy Policy to learn more. By continuing to use the site, you agree to this use of cookies and data.
  • In France
  • List of Countries
  • For 7 days
  • Water Temperature
  • Satellite Maps
  • Weather Map
  • Weather Widgets
  • user-avatar
    Login

    Hourly Weather Salzburg

    Today, 22 April, Monday

    Time Temperature Precipitation Wind Pressure Humidity
    00:00 +3°C° 0 mm 2 mps 625 mmHg 86%
    01:00 +3°C° 0 mm 2 mps 625 mmHg 89%
    02:00 +3°C° 0 mm 2 mps 625 mmHg 89%
    03:00 +2°C° 0 mm 2 mps 624 mmHg 90%
    04:00 +2°C° 0 mm 2 mps 624 mmHg 91%
    05:00 +3°C° 0 mm 2 mps 624 mmHg 85%
    06:00 +4°C° 0 mm 2 mps 624 mmHg 80%
    07:00 +5°C° 0 mm 2 mps 624 mmHg 74%
    08:00 +9°C° 0 mm 1 mps 625 mmHg 63%
    09:00 +12°C° 0 mm 1 mps 625 mmHg 52%
    10:00 +15°C° 0 mm 1 mps 626 mmHg 41%
    11:00 +16°C° 0 mm 1 mps 626 mmHg 38%
    12:00 +18°C° 0 mm 1 mps 625 mmHg 35%
    13:00 +19°C° 0 mm 1 mps 625 mmHg 32%
    14:00 +17°C° 0 mm 2 mps 625 mmHg 34%
    15:00 +16°C° 0 mm 2 mps 624 mmHg 36%
    16:00 +16°C° 0 mm 2 mps 623 mmHg 38%
    17:00 +13°C° 0 mm 2 mps 622 mmHg 50%
    18:00 +10°C° 0 mm 2 mps 621 mmHg 61%
    19:00 +7°C° 0 mm 2 mps 620 mmHg 73%
    20:00 +6°C° 0 mm 2 mps 619 mmHg 75%
    21:00 +4°C° 0 mm 3 mps 619 mmHg 76%
    22:00 +3°C° 0 mm 3 mps 619 mmHg 78%
    23:00 +2°C° 0 mm 3 mps 618 mmHg 77%

    Tomorrow, 23 April, Tuesday

    Time Temperature Precipitation Wind Pressure Humidity
    00:00 +1°C° 0 mm 3 mps 618 mmHg 77%
    01:00 +1°C° 0 mm 3 mps 617 mmHg 76%
    02:00 +1°C° 0 mm 3 mps 617 mmHg 77%
    03:00 +1°C° 0 mm 3 mps 617 mmHg 77%
    04:00 +1°C° 0 mm 3 mps 616 mmHg 78%
    05:00 +2°C° 0 mm 3 mps 616 mmHg 76%
    06:00 +3°C° 0 mm 3 mps 617 mmHg 74%
    07:00 +4°C° 0 mm 3 mps 617 mmHg 71%
    08:00 +7°C° 0 mm 3 mps 618 mmHg 65%
    09:00 +9°C° 0 mm 3 mps 618 mmHg 59%
    10:00 +11°C° 0 mm 3 mps 619 mmHg 52%
    11:00 +11°C° 0 mm 3 mps 619 mmHg 51%
    12:00 +12°C° 0 mm 3 mps 619 mmHg 49%
    13:00 +12°C° 0 mm 4 mps 619 mmHg 48%
    14:00 +12°C° 0 mm 3 mps 619 mmHg 49%
    15:00 +11°C° 0 mm 3 mps 619 mmHg 51%
    16:00 +11°C° 0 mm 3 mps 619 mmHg 52%
    17:00 +9°C° 0 mm 3 mps 618 mmHg 59%
    18:00 +8°C° 0 mm 3 mps 618 mmHg 66%
    19:00 +5°C° 0 mm 3 mps 617 mmHg 73%
    20:00 +4°C° 0 mm 3 mps 617 mmHg 76%
    21:00 +4°C° 0 mm 3 mps 618 mmHg 79%
    22:00 +3°C° 0 mm 3 mps 618 mmHg 82%
    23:00 +3°C° 0 mm 3 mps 618 mmHg 83%

    Day after tomorrow, 24 April, Wednesday

    Time Temperature Precipitation Wind Pressure Humidity
    00:00 +3°C° 0 mm 3 mps 618 mmHg 84%
    01:00 +3°C° 0 mm 3 mps 619 mmHg 84%
    02:00 +3°C° 0.1 mm 3 mps 619 mmHg 85%
    03:00 +3°C° 0.1 mm 3 mps 619 mmHg 86%
    04:00 +3°C° 0.1 mm 3 mps 619 mmHg 86%
    05:00 +3°C° 0.2 mm 3 mps 620 mmHg 84%
    06:00 +4°C° 0.2 mm 3 mps 621 mmHg 81%
    07:00 +5°C° 0.2 mm 3 mps 621 mmHg 78%
    08:00 +8°C° 0 mm 3 mps 622 mmHg 70%
    09:00 +10°C° 0 mm 3 mps 623 mmHg 62%
    10:00 +13°C° 0 mm 2 mps 624 mmHg 54%
    11:00 +13°C° 0 mm 3 mps 625 mmHg 51%
    12:00 +14°C° 0 mm 3 mps 625 mmHg 47%
    13:00 +16°C° 0 mm 3 mps 626 mmHg 43%
    14:00 +16°C° 0 mm 3 mps 625 mmHg 44%
    15:00 +14°C° 0 mm 3 mps 625 mmHg 45%
    16:00 +14°C° 0 mm 3 mps 625 mmHg 46%
    17:00 +12°C° 0 mm 3 mps 625 mmHg 54%
    18:00 +10°C° 0 mm 3 mps 624 mmHg 63%
    19:00 +8°C° 0 mm 3 mps 623 mmHg 71%
    20:00 +7°C° 0 mm 3 mps 623 mmHg 74%
    21:00 +5°C° 0 mm 3 mps 624 mmHg 77%
    22:00 +4°C° 0 mm 3 mps 624 mmHg 80%
    23:00 +4°C° 0 mm 3 mps 624 mmHg 80%

    25 April, Thursday

    Time Temperature Precipitation Wind Pressure Humidity
    00:00 +4°C° 0 mm 3 mps 623 mmHg 80%
    01:00 +4°C° 0 mm 3 mps 623 mmHg 80%
    02:00 +4°C° 0 mm 3 mps 623 mmHg 79%
    03:00 +4°C° 0 mm 3 mps 623 mmHg 78%
    04:00 +5°C° 0 mm 3 mps 624 mmHg 78%
    05:00 +5°C° 0 mm 3 mps 624 mmHg 77%
    06:00 +5°C° 0 mm 3 mps 624 mmHg 76%
    07:00 +7°C° 0 mm 2 mps 625 mmHg 75%
    08:00 +9°C° 0 mm 2 mps 626 mmHg 67%
    09:00 +12°C° 0 mm 2 mps 627 mmHg 60%
    10:00 +14°C° 0 mm 2 mps 627 mmHg 52%
    11:00 +14°C° 0 mm 3 mps 627 mmHg 47%
    12:00 +16°C° 0 mm 3 mps 628 mmHg 42%
    13:00 +17°C° 0 mm 3 mps 628 mmHg 37%
    14:00 +17°C° 0 mm 3 mps 628 mmHg 38%
    15:00 +16°C° 0 mm 3 mps 627 mmHg 39%
    16:00 +16°C° 0 mm 3 mps 627 mmHg 41%
    17:00 +13°C° 0 mm 3 mps 626 mmHg 50%
    18:00 +11°C° 0 mm 3 mps 625 mmHg 59%
    19:00 +8°C° 0 mm 3 mps 624 mmHg 69%
    20:00 +8°C° 0 mm 3 mps 624 mmHg 71%
    21:00 +7°C° 0 mm 3 mps 624 mmHg 73%
    22:00 +5°C° 0 mm 3 mps 624 mmHg 75%
    23:00 +5°C° 0 mm 3 mps 624 mmHg 75%

    26 April, Friday

    Time Temperature Precipitation Wind Pressure Humidity
    00:00 +5°C° 0 mm 3 mps 624 mmHg 76%
    01:00 +5°C° 0 mm 3 mps 624 mmHg 76%
    02:00 +4°C° 0 mm 3 mps 623 mmHg 77%
    03:00 +4°C° 0 mm 3 mps 623 mmHg 78%
    04:00 +5°C° 0 mm 2 mps 623 mmHg 80%
    05:00 +5°C° 0 mm 2 mps 623 mmHg 77%
    06:00 +6°C° 0 mm 2 mps 623 mmHg 74%
    07:00 +8°C° 0 mm 1 mps 623 mmHg 71%
    08:00 +9°C° 0 mm 1 mps 624 mmHg 68%
    09:00 +9°C° 0 mm 2 mps 625 mmHg 66%
    10:00 +10°C° 0 mm 2 mps 625 mmHg 63%
    11:00 +8°C° 1.4 mm 2 mps 625 mmHg 70%
    12:00 +7°C° 1.4 mm 3 mps 625 mmHg 78%
    13:00 +4°C° 1.4 mm 3 mps 625 mmHg 85%
    14:00 +2°C° 2.2 mm 3 mps 624 mmHg 89%
    15:00 +1°C° 2.2 mm 2 mps 624 mmHg 92%
    16:00 -2°C° 2.2 mm 2 mps 624 mmHg 95%
    17:00 -2°C° 1.1 mm 2 mps 624 mmHg 95%
    18:00 0°C° 1.1 mm 1 mps 625 mmHg 95%
    19:00 0°C° 1.1 mm 1 mps 625 mmHg 95%
    20:00 0°C° 1 mm 1 mps 626 mmHg 96%
    21:00 0°C° 1 mm 1 mps 626 mmHg 96%
    22:00 0°C° 1 mm 1 mps 626 mmHg 96%
    23:00 -1°C° 1.1 mm 1 mps 626 mmHg 96%

    27 April, Saturday

    Time Temperature Precipitation Wind Pressure Humidity
    00:00 -1°C° 1.1 mm 1 mps 626 mmHg 96%
    01:00 -1°C° 1.1 mm 1 mps 626 mmHg 96%
    02:00 -1°C° 1.1 mm 1 mps 627 mmHg 97%
    03:00 -1°C° 1.1 mm 1 mps 627 mmHg 97%
    04:00 -1°C° 1.1 mm 1 mps 627 mmHg 97%
    05:00 -1°C° 1.1 mm 1 mps 627 mmHg 96%
    06:00 -1°C° 1.1 mm 1 mps 627 mmHg 96%
    07:00 -1°C° 1.1 mm 1 mps 628 mmHg 96%
    08:00 0°C° 0.5 mm 1 mps 628 mmHg 95%
    09:00 +1°C° 0.5 mm 1 mps 628 mmHg 94%
    10:00 +2°C° 0.5 mm 1 mps 629 mmHg 93%
    11:00 +2°C° 0.3 mm 1 mps 629 mmHg 92%
    12:00 +3°C° 0.3 mm 1 mps 629 mmHg 92%
    13:00 +2°C° 0.3 mm 2 mps 629 mmHg 91%
    14:00 +4°C° 0.1 mm 1 mps 629 mmHg 90%
    15:00 +4°C° 0.1 mm 1 mps 629 mmHg 89%
    16:00 +4°C° 0.1 mm 1 mps 629 mmHg 89%
    17:00 +3°C° 0 mm 1 mps 629 mmHg 91%
    18:00 +2°C° 0 mm 1 mps 629 mmHg 93%
    19:00 +1°C° 0 mm 1 mps 629 mmHg 96%
    20:00 +1°C° 0 mm 1 mps 629 mmHg 95%
    21:00 0°C° 0 mm 1 mps 630 mmHg 95%
    22:00 0°C° 0 mm 1 mps 630 mmHg 94%
    23:00 0°C° 0 mm 1 mps 630 mmHg 94%
    Show more